Weather History for Clarksville, TN

Change the Weather History Date:

Sunday, September 1, 2013

  Actual Average Record
Temperature  
Mean Temperature 75 °F -  
Max Temperature 83 °F - 98 °F (2011)
Min Temperature 67 °F - 43 °F (1954)
Degree Days  
Heating Degree Days 0    
Month to date heating degree days 0  
Since 1 July heating degree days 0  
Cooling Degree Days 10    
Month to date cooling degree days 10  
Growing Degree Days 24 (Base 50)    
Moisture  
Dew Point 68 °F    
Average Humidity 79    
Maximum Humidity 93    
Minimum Humidity 65    
Precipitation  
Precipitation 0.71 in - 1.25 in (1976)
Month to date precipitation 0.71  
Sea Level Pressure  
Sea Level Pressure 29.87 in    
Wind  
Wind Speed 6 mph (SSW)    
Max Wind Speed 18 mph    
Max Gust Speed 30 mph    
Visibility 9 miles    
Events Rain , Thunderstorm    
T = Trace of Precipitation, MM = Missing Value Source: NWS Daily Summary

Daily Weather History Graph

Daily Weather History Graph

Search for Another Location

Airport:

Trip Planner

Search our weather history database for the weather conditions in past years. The results will help you decide how hot, cold, wet, or windy it might be!

Date:

Astronomy

Sep. 01, 2013 Rise Set
Actual Time 6:21 AM CDT 7:17 PM CDT
Civil Twilight 5:54 AM CDT 7:43 PM CDT
Nautical Twilight 5:23 AM CDT 8:15 PM CDT
Astronomical Twilight 4:50 AM CDT 8:47 PM CDT
Moon 2:46 AM CDT (9/1) 4:51 PM CDT (9/1)
Length of Visible Light 13h 49m
Length of Day
12h 56m
Waning Crescent, 13% of the Moon is Illuminated
Sep 1
Waning Crescent
Sep 5
New
Sep 12
First Quarter
Sep 19
Full
Sep 26
Last Quarter

Hourly Weather History & Observations

Time (CDT) Temp. Heat Index Dew Point Humidity Pressure Visibility Wind Dir Wind Speed Gust Speed Precip Events Conditions
12:52 AM 78.1 °F - 72.0 °F 81% 29.82 in 10.0 mi SSW 3.5 mph - N/A   Clear
1:52 AM 78.1 °F - 71.1 °F 79% 29.82 in 10.0 mi Calm Calm - N/A   Clear
2:52 AM 75.0 °F - 64.9 °F 71% 29.85 in 10.0 mi NE 9.2 mph 26.5 mph N/A   Overcast
3:52 AM 71.1 °F - 66.0 °F 84% 29.84 in 10.0 mi ESE 4.6 mph - N/A   Clear
4:45 AM 71.6 °F - 66.2 °F 83% 29.90 in 10.0 mi NE 9.2 mph 18.4 mph N/A Thunderstorm Overcast
4:52 AM 72.0 °F - 64.9 °F 78% 29.90 in 10.0 mi NE 13.8 mph 19.6 mph N/A Thunderstorm Overcast
5:00 AM 71.6 °F - 66.2 °F 83% 29.94 in 10.0 mi North 13.8 mph 19.6 mph 0.00 in Rain Light Rain
5:07 AM 71.6 °F - 66.2 °F 83% 29.93 in 10.0 mi NNE 13.8 mph 23.0 mph 0.00 in Rain , Thunderstorm Light Thunderstorms and Rain
5:52 AM 69.1 °F - 66.9 °F 93% 29.93 in 1.8 mi Calm Calm - 0.35 in Rain , Thunderstorm Heavy Thunderstorms and Rain
5:59 AM 69.8 °F - 68.0 °F 94% 29.93 in 1.2 mi SSE 3.5 mph - 0.11 in Rain , Thunderstorm Heavy Thunderstorms and Rain
6:17 AM 68.0 °F - 66.2 °F 94% 29.92 in 2.5 mi South 5.8 mph - 0.26 in Rain , Thunderstorm Heavy Thunderstorms and Rain
6:24 AM 68.0 °F - 66.2 °F 94% 29.88 in 3.0 mi SSE 10.4 mph 16.1 mph 0.32 in Rain , Thunderstorm Heavy Thunderstorms and Rain
6:52 AM 68.0 °F - 64.9 °F 90% 29.88 in 10.0 mi South 10.4 mph - 0.33 in Rain , Thunderstorm Light Thunderstorms and Rain
7:19 AM 66.2 °F - 64.4 °F 94% 29.91 in 10.0 mi SSW 10.4 mph - 0.02 in Rain Light Rain
7:52 AM 66.9 °F - 64.9 °F 93% 29.88 in 10.0 mi SSW 6.9 mph - 0.02 in   Mostly Cloudy
8:52 AM 68.0 °F - 64.9 °F 90% 29.86 in 10.0 mi South 6.9 mph - N/A   Scattered Clouds
9:52 AM 70.0 °F - 64.9 °F 84% 29.87 in 10.0 mi SW 9.2 mph 16.1 mph N/A   Scattered Clouds
10:52 AM 73.9 °F - 64.9 °F 73% 29.88 in 10.0 mi SW 11.5 mph 19.6 mph N/A   Partly Cloudy
11:52 AM 75.0 °F - 66.9 °F 76% 29.90 in 10.0 mi SW 11.5 mph 17.3 mph 0.01 in   Mostly Cloudy
12:52 PM 75.9 °F - 69.1 °F 79% 29.88 in 10.0 mi WSW 9.2 mph 16.1 mph N/A   Partly Cloudy
1:52 PM 79.0 °F - 68.0 °F 69% 29.87 in 10.0 mi WSW 9.2 mph 16.1 mph N/A   Clear
2:52 PM 79.0 °F - 68.0 °F 69% 29.85 in 10.0 mi WSW 6.9 mph - N/A   Clear
3:52 PM 82.0 °F 85.5 °F 69.1 °F 65% 29.83 in 10.0 mi WSW 5.8 mph - N/A   Clear
4:52 PM 82.9 °F 86.5 °F 69.1 °F 63% 29.82 in 10.0 mi SSW 5.8 mph - N/A   Clear
5:52 PM 82.0 °F 85.9 °F 70.0 °F 67% 29.82 in 10.0 mi SW 5.8 mph - N/A   Clear
6:52 PM 78.1 °F - 70.0 °F 76% 29.83 in 10.0 mi West 4.6 mph - N/A   Clear
7:52 PM 77.0 °F - 71.1 °F 82% 29.85 in 10.0 mi Calm Calm - N/A   Clear
8:52 PM 75.0 °F - 71.1 °F 87% 29.86 in 10.0 mi WSW 3.5 mph - N/A   Clear
9:52 PM 73.9 °F - 71.1 °F 91% 29.87 in 10.0 mi West 3.5 mph - N/A   Clear
10:43 PM 73.4 °F - 71.6 °F 94% 29.87 in 10.0 mi SSW 10.4 mph - N/A Thunderstorm Scattered Clouds
10:52 PM 73.9 °F - 71.1 °F 91% 29.86 in 10.0 mi South 13.8 mph - N/A   Scattered Clouds
11:05 PM 73.4 °F - 71.6 °F 94% 29.89 in 10.0 mi WSW 6.9 mph - N/A   Scattered Clouds
11:52 PM 73.0 °F - 70.0 °F 90% 29.87 in 10.0 mi Calm Calm - 0.00 in   Clear